Location: Berkeley
(37.8716°N, 122.2727°W)
Time: 00:37:01
(UTC-07:00)

X-37B - Visible Passes

Search period start: 18 September 2021 00:00
Search period end: 28 September 2021 00:00
Orbit: 381 x 393 km, 45.0° (Epoch: 29 August)

Date Brightness Start Highest point End Pass type
(mag) Time Alt. Az. Time Alt. Az. Time Alt. Az.
18 Sep 2.6 06:15:05 10° SSW 06:17:43 25° SE 06:20:23 10° E visible
19 Sep 3.3 05:18:15 11° SSE 05:19:33 13° SE 05:21:03 10° ESE visible
20 Sep 1.3 05:55:14 17° SW 05:57:27 49° SSE 06:00:32 10° ENE visible
21 Sep 2.7 04:59:47 23° ESE 04:59:47 23° ESE 05:01:51 10° E visible
22 Sep 0.4 05:36:34 50° WSW 05:37:15 84° NNW 05:40:26 10° ENE visible
23 Sep 3.4 04:40:58 18° ENE 04:40:58 18° ENE 04:42:00 10° ENE visible
23 Sep 1.7 06:13:15 13° WNW 06:15:39 32° NNW 06:18:33 10° NE visible
24 Sep 1.4 05:17:36 43° N 05:17:36 43° N 05:20:14 10° NE visible
25 Sep 2.2 05:54:12 18° NW 05:55:41 25° N 05:58:22 10° NE visible
26 Sep 2.9 04:58:29 22° NNE 04:58:29 22° NNE 05:00:01 10° NE visible
26 Sep 2.5 06:31:49 10° NW 06:34:20 21° N 06:36:52 10° NE visible
27 Sep 2.4 05:35:03 20° NNW 05:35:44 22° N 05:38:17 10° NE visible
